Weather History for KAHQ - November, 2013

Change the Weather History Date:

Saturday, November 16, 2013

  Actual Average Record
Temperature  
Mean Temperature 49 °F -  
Max Temperature 63 °F 50 °F 69 °F (1975)
Min Temperature 35 °F 27 °F 3 °F (2014)
Degree Days  
Heating Degree Days 16    
Moisture  
Dew Point 39 °F    
Average Humidity 71    
Maximum Humidity 93    
Minimum Humidity 34    
Precipitation  
Precipitation 0.00 in - - ()
Sea Level Pressure  
Sea Level Pressure 29.39 in    
Wind  
Wind Speed 10 mph (South)    
Max Wind Speed 24 mph    
Max Gust Speed 30 mph    
Visibility 9 miles    
Events      
Averages and records for this station are not official NWS values.
T = Trace of Precipitation, MM = Missing Value Source: NWS Daily Summary

Daily Weather History Graph

Daily Weather History Graph

Search for Another Location

Airport or City:

Trip Planner

Search our weather history database for the weather conditions in past years. The results will help you decide how hot, cold, wet, or windy it might be!

Date:

Astronomy

Nov. 16, 2013 Rise Set
Actual Time 7:15 AM CST 5:06 PM CST
Civil Twilight 6:46 AM CST 5:35 PM CST
Nautical Twilight 6:12 AM CST 6:09 PM CST
Astronomical Twilight 5:40 AM CST 6:41 PM CST
Moon 4:42 PM CST (11/16) 6:12 AM CST (11/16)
Length of Visible Light 10h 49m
Length of Day
9h 50m
Waxing Gibbous, 99% of the Moon is Illuminated
Nov 16
Waxing Gibbous
Nov 17
Full
Nov 25
Last Quarter
Dec 2
New
Dec 9
First Quarter

Hourly Weather History & Observations

Time (CST) Temp. Windchill Dew Point Humidity Pressure Visibility Wind Dir Wind Speed Gust Speed Precip Events Conditions
12:15 AM 42.8 °F 38.0 °F 39.4 °F 88% 29.57 in 10.0 mi SSE 8.1 mph - N/A   Clear
12:35 AM 41.0 °F 37.1 °F 38.3 °F 90% 29.57 in 10.0 mi SE 5.8 mph - N/A   Clear
12:55 AM 40.3 °F 35.5 °F 37.9 °F 91% 29.56 in 7.0 mi SE 6.9 mph - N/A   Clear
1:15 AM 40.6 °F 34.8 °F 38.7 °F 93% 29.55 in 7.0 mi SE 9.2 mph - N/A   Clear
1:35 AM 42.4 °F 37.5 °F 40.1 °F 91% 29.54 in 7.0 mi SE 8.1 mph - N/A   Clear
1:55 AM 43.5 °F 37.9 °F 41.0 °F 91% 29.53 in 7.0 mi SE 10.4 mph - N/A   Clear
2:15 AM 43.7 °F 37.3 °F 41.2 °F 91% 29.51 in 7.0 mi SE 12.7 mph - N/A   Clear
2:35 AM 44.4 °F 39.0 °F 41.9 °F 91% 29.50 in 7.0 mi SE 10.4 mph - N/A   Clear
2:55 AM 43.7 °F 38.1 °F 41.5 °F 92% 29.50 in 7.0 mi SE 10.4 mph - N/A   Clear
3:15 AM 43.7 °F 38.1 °F 41.5 °F 92% 29.49 in 7.0 mi SE 10.4 mph - N/A   Clear
3:35 AM 44.6 °F 39.2 °F 42.4 °F 92% 29.46 in 7.0 mi SE 10.4 mph - N/A   Clear
3:55 AM 45.1 °F 38.8 °F 43.0 °F 92% 29.45 in 7.0 mi SE 13.8 mph - N/A   Clear
4:15 AM 45.5 °F 39.6 °F 43.0 °F 91% 29.44 in 7.0 mi SE 12.7 mph - N/A   Clear
4:35 AM 45.5 °F 39.6 °F 43.2 °F 92% 29.43 in 7.0 mi SE 12.7 mph - N/A   Clear
4:55 AM 45.0 °F 38.9 °F 42.8 °F 92% 29.42 in 7.0 mi SSE 12.7 mph - N/A   Clear
5:15 AM 46.0 °F 39.6 °F 43.7 °F 92% 29.40 in 7.0 mi SSE 15.0 mph - N/A   Clear
5:35 AM 46.2 °F 39.8 °F 43.7 °F 91% 29.39 in 7.0 mi SSE 15.0 mph - N/A   Clear
5:55 AM 46.4 °F 40.7 °F 43.9 °F 91% 29.38 in 7.0 mi SSE 12.7 mph - N/A   Clear
6:15 AM 46.4 °F 40.7 °F 43.9 °F 91% 29.38 in 7.0 mi SSE 12.7 mph - N/A   Clear
6:35 AM 46.0 °F 40.6 °F 43.9 °F 92% 29.36 in 7.0 mi SSE 11.5 mph - N/A   Clear
6:55 AM 46.2 °F 40.5 °F 44.2 °F 93% 29.35 in 7.0 mi SSE 12.7 mph - N/A   Clear
7:15 AM 46.9 °F - 45.0 °F 93% 29.35 in 7.0 mi SSE 12.7 mph - N/A   Clear
7:35 AM 47.3 °F - 45.1 °F 92% 29.35 in 5.0 mi SSE 12.7 mph - N/A   Scattered Clouds
7:55 AM 48.0 °F - 46.0 °F 93% 29.33 in 5.0 mi SSE 11.5 mph - N/A   Scattered Clouds
8:15 AM 48.6 °F - 46.6 °F 93% 29.35 in 5.0 mi South 5.8 mph - N/A   Mostly Cloudy
8:35 AM 49.1 °F - 47.3 °F 93% 29.35 in 5.0 mi South 4.6 mph - N/A   Mostly Cloudy
8:55 AM 51.3 °F - 49.1 °F 92% 29.34 in 7.0 mi South 9.2 mph - N/A   Clear
9:15 AM 52.9 °F - 50.0 °F 90% 29.34 in 10.0 mi South 9.2 mph - N/A   Clear
9:35 AM 54.7 °F - 50.5 °F 86% 29.33 in 10.0 mi South 13.8 mph - N/A   Clear
9:55 AM 55.8 °F - 49.8 °F 80% 29.33 in 10.0 mi SSW 15.0 mph 18.4 mph N/A   Scattered Clouds
10:15 AM 56.3 °F - 48.0 °F 74% 29.32 in 10.0 mi SSW 20.7 mph 24.2 mph N/A   Scattered Clouds
10:35 AM 56.1 °F - 46.8 °F 71% 29.32 in 10.0 mi SW 19.6 mph 26.5 mph N/A   Clear
10:55 AM 57.2 °F - 43.7 °F 61% 29.32 in 10.0 mi SW 20.7 mph 29.9 mph N/A   Clear
11:15 AM 58.3 °F - 43.7 °F 58% 29.32 in 10.0 mi SSW 18.4 mph 26.5 mph N/A   Clear
11:35 AM 57.9 °F - 42.3 °F 56% 29.33 in 10.0 mi SSW 24.2 mph 28.8 mph N/A   Clear
11:55 AM 58.5 °F - 41.9 °F 54% 29.32 in 10.0 mi SW 18.4 mph 26.5 mph N/A   Clear
12:15 PM 59.5 °F - 41.2 °F 51% 29.32 in 10.0 mi WSW 17.3 mph - N/A   Clear
12:35 PM 59.5 °F - 40.1 °F 49% 29.32 in 10.0 mi SW 15.0 mph 23.0 mph N/A   Clear
12:55 PM 62.4 °F - 39.4 °F 43% 29.32 in 10.0 mi SW 17.3 mph - N/A   Clear
1:15 PM 62.6 °F - 37.2 °F 39% 29.33 in 10.0 mi SW 15.0 mph 23.0 mph N/A   Clear
1:35 PM 63.5 °F - 36.9 °F 37% 29.33 in 10.0 mi WSW 13.8 mph 19.6 mph N/A   Clear
1:55 PM 63.9 °F - 37.2 °F 37% 29.34 in 10.0 mi West 16.1 mph 21.9 mph N/A   Clear
2:15 PM 63.5 °F - 36.0 °F 36% 29.34 in 10.0 mi WSW 13.8 mph 20.7 mph N/A   Clear
2:35 PM 63.1 °F - 35.6 °F 36% 29.33 in 10.0 mi WSW 12.7 mph - N/A   Clear
2:55 PM 63.3 °F - 35.2 °F 35% 29.34 in 10.0 mi WSW 10.4 mph - N/A   Clear
3:15 PM 63.3 °F - 34.7 °F 34% 29.34 in 10.0 mi WSW 10.4 mph - N/A   Clear
3:35 PM 63.5 °F - 34.5 °F 34% 29.34 in 10.0 mi WSW 9.2 mph - N/A   Clear
3:55 PM 63.0 °F - 34.2 °F 34% 29.35 in 10.0 mi SW 12.7 mph - N/A   Clear
4:15 PM 61.9 °F - 33.8 °F 35% 29.36 in 10.0 mi SW 9.2 mph - N/A   Clear
4:35 PM 60.4 °F - 34.0 °F 37% 29.37 in 10.0 mi SW 8.1 mph - N/A   Clear
4:55 PM 57.6 °F - 34.3 °F 42% 29.38 in 10.0 mi SW 6.9 mph - N/A   Clear
5:15 PM 55.4 °F - 34.7 °F 46% 29.39 in 10.0 mi SW 6.9 mph - N/A   Clear
5:35 PM 54.0 °F - 33.3 °F 46% 29.39 in 10.0 mi SW 6.9 mph - N/A   Clear
5:55 PM 54.5 °F - 32.5 °F 43% 29.40 in 10.0 mi SW 6.9 mph - N/A   Clear
6:15 PM 54.5 °F - 32.0 °F 42% 29.41 in 10.0 mi SW 6.9 mph - N/A   Clear
6:35 PM 49.1 °F - 32.2 °F 52% 29.41 in 10.0 mi WSW 4.6 mph - N/A   Clear
6:55 PM 50.9 °F - 32.2 °F 49% 29.42 in 10.0 mi SW 4.6 mph - N/A   Clear
7:15 PM 47.5 °F - 32.5 °F 56% 29.42 in 10.0 mi Calm Calm - N/A   Clear
7:35 PM 43.2 °F - 32.0 °F 65% 29.42 in 10.0 mi Calm Calm - N/A   Clear
7:55 PM 42.8 °F - 31.8 °F 65% 29.41 in 10.0 mi Calm Calm - N/A   Clear
8:15 PM 40.8 °F - 31.8 °F 70% 29.39 in 10.0 mi Calm Calm - N/A   Clear
8:35 PM 37.6 °F 34.0 °F 31.1 °F 77% 29.39 in 10.0 mi North 4.6 mph - N/A   Clear
8:55 PM 38.7 °F 36.3 °F 31.6 °F 76% 29.39 in 10.0 mi NNE 3.5 mph - N/A   Clear
9:15 PM 37.8 °F - 30.9 °F 76% 29.40 in 10.0 mi Calm Calm - N/A   Clear
9:35 PM 40.3 °F - 32.0 °F 72% 29.39 in 10.0 mi Calm Calm - N/A   Clear
9:55 PM 40.3 °F - 33.8 °F 78% 29.39 in 10.0 mi Calm Calm - N/A   Clear
10:15 PM 39.7 °F - 33.6 °F 79% 29.39 in 10.0 mi Calm Calm - N/A   Clear
10:35 PM 39.6 °F - 32.5 °F 76% 29.39 in 10.0 mi Calm Calm - N/A   Clear
10:55 PM 37.2 °F - 32.0 °F 81% 29.39 in 10.0 mi Calm Calm - N/A   Clear
11:15 PM 35.6 °F - 31.5 °F 85% 29.38 in 10.0 mi Calm Calm - N/A   Clear
11:35 PM 35.1 °F - 30.4 °F 83% 29.38 in 10.0 mi Calm Calm - N/A   Clear
11:55 PM 37.4 °F - 31.1 °F 78% 29.38 in 10.0 mi Calm Calm - N/A   Clear